When you browse on this site, cookies collect data to enhance your experience and personalize the content and advertising you see.
Visit our Privacy Policy to learn more. By continuing to use the site, you agree to this use of cookies and data.
  • Em Portugal
  • Lista de países
  • Para 7 dias
  • Temperatura da água
  • Mapas de satélite
  • Mapa do tempo
  • Widgets de tempo
  • user-avatar
    Iniciar Sessão

    Previsão horária em Santo Vlas

    Hoje, 19 Fevereiro, Terça-feira

    Tempo Temperatura Precipitação Vento Pressão Humidade
    00:00 +8°C° 0 mm 1 m/s 761 mmHg 83%
    01:00 +8°C° 0 mm 1 m/s 762 mmHg 84%
    02:00 +8°C° 0 mm 1 m/s 761 mmHg 86%
    03:00 +7°C° 0 mm 1 m/s 761 mmHg 87%
    04:00 +7°C° 0 mm 1 m/s 761 mmHg 87%
    05:00 +7°C° 0 mm 1 m/s 761 mmHg 88%
    06:00 +6°C° 0 mm 2 m/s 761 mmHg 88%
    07:00 +7°C° 0 mm 2 m/s 761 mmHg 88%
    08:00 +7°C° 0 mm 2 m/s 761 mmHg 88%
    09:00 +8°C° 0 mm 2 m/s 761 mmHg 82%
    10:00 +10°C° 0 mm 3 m/s 761 mmHg 75%
    11:00 +11°C° 0 mm 3 m/s 761 mmHg 69%
    12:00 +12°C° 0 mm 4 m/s 761 mmHg 68%
    13:00 +12°C° 0 mm 4 m/s 761 mmHg 66%
    14:00 +12°C° 0 mm 4 m/s 760 mmHg 65%
    15:00 +12°C° 0 mm 4 m/s 760 mmHg 69%
    16:00 +11°C° 0 mm 4 m/s 760 mmHg 73%
    17:00 +10°C° 0 mm 4 m/s 760 mmHg 77%
    18:00 +10°C° 0 mm 4 m/s 760 mmHg 80%
    19:00 +8°C° 0 mm 4 m/s 760 mmHg 84%
    20:00 +7°C° 0 mm 4 m/s 760 mmHg 88%
    21:00 +7°C° 0 mm 4 m/s 759 mmHg 89%
    22:00 +8°C° 0 mm 3 m/s 759 mmHg 89%
    23:00 +8°C° 0 mm 3 m/s 759 mmHg 90%

    Amanhã, 20 Fevereiro, Quarta-feira

    Tempo Temperatura Precipitação Vento Pressão Humidade
    00:00 +7°C° 0 mm 3 m/s 759 mmHg 90%
    01:00 +7°C° 0 mm 3 m/s 759 mmHg 91%
    02:00 +7°C° 0 mm 2 m/s 759 mmHg 91%
    03:00 +7°C° 0 mm 2 m/s 758 mmHg 91%
    04:00 +6°C° 0 mm 2 m/s 758 mmHg 90%
    05:00 +6°C° 0 mm 2 m/s 758 mmHg 89%
    06:00 +6°C° 0 mm 2 m/s 758 mmHg 88%
    07:00 +6°C° 0 mm 2 m/s 758 mmHg 86%
    08:00 +5°C° 0 mm 3 m/s 758 mmHg 85%
    09:00 +8°C° 0 mm 3 m/s 758 mmHg 76%
    10:00 +10°C° 0 mm 3 m/s 758 mmHg 68%
    11:00 +12°C° 0 mm 3 m/s 758 mmHg 60%
    12:00 +13°C° 0 mm 3 m/s 757 mmHg 54%
    13:00 +14°C° 0 mm 3 m/s 757 mmHg 48%
    14:00 +17°C° 0 mm 2 m/s 757 mmHg 43%
    15:00 +16°C° 0 mm 2 m/s 757 mmHg 44%
    16:00 +16°C° 0 mm 2 m/s 756 mmHg 45%
    17:00 +15°C° 0 mm 2 m/s 756 mmHg 47%
    18:00 +14°C° 0 mm 2 m/s 757 mmHg 50%
    19:00 +12°C° 0 mm 3 m/s 757 mmHg 52%
    20:00 +11°C° 0 mm 3 m/s 757 mmHg 55%
    21:00 +10°C° 0 mm 3 m/s 758 mmHg 59%
    22:00 +10°C° 0 mm 4 m/s 758 mmHg 63%
    23:00 +8°C° 0 mm 4 m/s 758 mmHg 67%

    Depois de amanhã, 21 Fevereiro, Quinta-feira

    Tempo Temperatura Precipitação Vento Pressão Humidade
    00:00 +8°C° 0 mm 4 m/s 759 mmHg 69%
    01:00 +7°C° 0 mm 5 m/s 759 mmHg 71%
    02:00 +7°C° 0 mm 5 m/s 759 mmHg 73%
    03:00 +7°C° 0 mm 5 m/s 759 mmHg 74%
    04:00 +6°C° 0 mm 4 m/s 759 mmHg 76%
    05:00 +6°C° 0 mm 4 m/s 760 mmHg 77%
    06:00 +6°C° 0 mm 4 m/s 760 mmHg 78%
    07:00 +6°C° 0 mm 4 m/s 761 mmHg 78%
    08:00 +7°C° 0 mm 3 m/s 761 mmHg 78%
    09:00 +8°C° 0 mm 3 m/s 761 mmHg 73%
    10:00 +9°C° 0 mm 3 m/s 762 mmHg 68%
    11:00 +10°C° 0 mm 2 m/s 762 mmHg 62%
    12:00 +12°C° 0 mm 2 m/s 762 mmHg 59%
    13:00 +13°C° 0 mm 1 m/s 761 mmHg 55%
    14:00 +13°C° 0 mm 1 m/s 761 mmHg 52%
    15:00 +13°C° 0 mm 1 m/s 761 mmHg 54%
    16:00 +13°C° 0 mm 2 m/s 761 mmHg 56%
    17:00 +12°C° 0 mm 2 m/s 761 mmHg 58%
    18:00 +10°C° 0 mm 2 m/s 761 mmHg 63%
    19:00 +9°C° 0 mm 3 m/s 761 mmHg 68%
    20:00 +9°C° 0 mm 3 m/s 761 mmHg 73%
    21:00 +8°C° 0 mm 3 m/s 761 mmHg 72%
    22:00 +8°C° 0 mm 3 m/s 761 mmHg 71%
    23:00 +8°C° 0 mm 3 m/s 761 mmHg 70%

    22 Fevereiro, Sexta-feira

    Tempo Temperatura Precipitação Vento Pressão Humidade
    00:00 +8°C° 0 mm 3 m/s 761 mmHg 69%
    01:00 +7°C° 0 mm 3 m/s 760 mmHg 68%
    02:00 +7°C° 0 mm 3 m/s 760 mmHg 68%
    03:00 +7°C° 0 mm 3 m/s 759 mmHg 69%
    04:00 +5°C° 0 mm 3 m/s 759 mmHg 70%
    05:00 +5°C° 0 mm 3 m/s 758 mmHg 71%
    06:00 +5°C° 0 mm 4 m/s 758 mmHg 72%
    07:00 +6°C° 0 mm 4 m/s 757 mmHg 73%
    08:00 +6°C° 0 mm 4 m/s 757 mmHg 75%
    09:00 +6°C° 0.5 mm 4 m/s 757 mmHg 75%
    10:00 +6°C° 0.5 mm 4 m/s 756 mmHg 76%
    11:00 +6°C° 0.5 mm 5 m/s 756 mmHg 77%
    12:00 +6°C° 0.3 mm 5 m/s 755 mmHg 76%
    13:00 +7°C° 0.3 mm 5 m/s 755 mmHg 76%
    14:00 +7°C° 0.3 mm 5 m/s 754 mmHg 75%
    15:00 +8°C° 0 mm 5 m/s 754 mmHg 76%
    16:00 +8°C° 0 mm 4 m/s 754 mmHg 76%
    17:00 +8°C° 0 mm 4 m/s 753 mmHg 77%
    18:00 +8°C° 0.2 mm 5 m/s 754 mmHg 76%
    19:00 +7°C° 0.2 mm 6 m/s 754 mmHg 76%
    20:00 +6°C° 0.2 mm 8 m/s 755 mmHg 75%
    21:00 +3°C° 0.2 mm 9 m/s 756 mmHg 77%
    22:00 +1°C° 0.2 mm 11 m/s 756 mmHg 78%
    23:00 -2°C° 0.2 mm 13 m/s 757 mmHg 79%

    23 Fevereiro, Sábado

    Tempo Temperatura Precipitação Vento Pressão Humidade
    00:00 -4°C° 0.1 mm 13 m/s 758 mmHg 77%
    01:00 -6°C° 0.1 mm 13 m/s 759 mmHg 75%
    02:00 -7°C° 0.1 mm 13 m/s 759 mmHg 72%
    03:00 -7°C° 0.3 mm 13 m/s 760 mmHg 71%
    04:00 -9°C° 0.3 mm 13 m/s 761 mmHg 69%
    05:00 -10°C° 0.3 mm 12 m/s 761 mmHg 67%
    06:00 -8°C° 0.1 mm 12 m/s 762 mmHg 63%
    07:00 -8°C° 0.1 mm 12 m/s 762 mmHg 59%
    08:00 -8°C° 0.1 mm 11 m/s 763 mmHg 54%
    09:00 -7°C° 0 mm 11 m/s 763 mmHg 52%
    10:00 -7°C° 0 mm 11 m/s 764 mmHg 49%
    11:00 -7°C° 0 mm 11 m/s 764 mmHg 46%
    12:00 -6°C° 0 mm 11 m/s 764 mmHg 45%
    13:00 -4°C° 0 mm 10 m/s 764 mmHg 43%
    14:00 -4°C° 0 mm 10 m/s 764 mmHg 42%
    15:00 -4°C° 0 mm 10 m/s 764 mmHg 43%
    16:00 -4°C° 0 mm 10 m/s 764 mmHg 44%
    17:00 -5°C° 0 mm 9 m/s 764 mmHg 45%
    18:00 -5°C° 0 mm 9 m/s 764 mmHg 47%
    19:00 -5°C° 0 mm 10 m/s 764 mmHg 48%
    20:00 -7°C° 0 mm 10 m/s 764 mmHg 49%
    21:00 -7°C° 0 mm 10 m/s 764 mmHg 50%
    22:00 -7°C° 0 mm 10 m/s 764 mmHg 50%
    23:00 -7°C° 0 mm 10 m/s 764 mmHg 50%

    24 Fevereiro, Domingo

    Tempo Temperatura Precipitação Vento Pressão Humidade
    00:00 -8°C° 0 mm 10 m/s 764 mmHg 51%
    01:00 -8°C° 0 mm 10 m/s 764 mmHg 51%
    02:00 -8°C° 0 mm 11 m/s 763 mmHg 52%
    03:00 -9°C° 0 mm 11 m/s 763 mmHg 53%
    04:00 -9°C° 0 mm 11 m/s 763 mmHg 54%
    05:00 -9°C° 0 mm 11 m/s 763 mmHg 56%
    06:00 -9°C° 0 mm 11 m/s 763 mmHg 55%
    07:00 -9°C° 0 mm 11 m/s 763 mmHg 54%
    08:00 -9°C° 0 mm 11 m/s 763 mmHg 54%
    09:00 -8°C° 0 mm 11 m/s 763 mmHg 51%
    10:00 -7°C° 0 mm 11 m/s 763 mmHg 47%
    11:00 -6°C° 0 mm 11 m/s 764 mmHg 44%
    12:00 -6°C° 0 mm 11 m/s 763 mmHg 43%
    13:00 -4°C° 0 mm 11 m/s 763 mmHg 42%
    14:00 -4°C° 0 mm 11 m/s 763 mmHg 41%
    15:00 -4°C° 0 mm 11 m/s 763 mmHg 43%
    16:00 -6°C° 0 mm 11 m/s 763 mmHg 45%
    17:00 -6°C° 0 mm 11 m/s 763 mmHg 48%
    18:00 -7°C° 0 mm 11 m/s 763 mmHg 51%
    19:00 -7°C° 0 mm 11 m/s 763 mmHg 54%
    20:00 -8°C° 0 mm 11 m/s 763 mmHg 57%
    21:00 -8°C° 0.1 mm 11 m/s 763 mmHg 57%
    22:00 -8°C° 0.1 mm 11 m/s 763 mmHg 58%
    23:00 -8°C° 0.1 mm 11 m/s 763 mmHg 59%
    Mostrar mais